SL-8 DEB *, 6252

Orbit data source: Space-Track

SL-8 DEB *, 6252 is space debris in LEO originally from a launch on Mon, 15 Mar 1965 UTC launched from the Tyuratam Missile And Space Complex (TTMTR). Debris objects in space refer to the collection of defunct objects orbiting the Earth. Examples of debris include non-operational satellites, rocket bodies, and fragments generated from explosions, collisions, or faulty payload assembly.

Loading next visibility...
Identifier
6252, 1965-020FD
Orbit
LEO
Country
Flag of CISCIS
Related business
Manufacturer
Unknown
Mission
Spacecraft
Bus & Motor
Unknown
Mass
Unknown
Launch date (UTC)
1965-03-15 (61 years ago)
Launch vehicle
Unknown
Launch site
Tyuratam Missile And Space Complex (TTMTR)
Object type
Payload
Rocket body
Debris
Shape & HBR
Unknown shape, 0.1 m
Radar Cross Section
Small (<0.1 m²)

Expand to show TLE details & history
Last TLE update: 20 hours ago

TLE from 20 hours ago
0 SL-8 DEB *
1 06252U 65020FD  26123.52992782  .00000012  00000-0  80985-3 0  9992
2 06252  56.0364 171.8676 0195228 216.3938 295.5913 12.30077969659587
Epoch: 2026-05-03T12:43Z
TLE epoch observation values (Epoch: 2026-05-03T12:43:05.763Z)
Latitude
24.59713°
Longitude
-78.2073°
Altitude
1,485.737 km
Speed
7.152 km/s
True Right ascension
22h 15m 59s
True Declination
24° 28' 45"
Sunlit
Object was in daylight at epoch
Visualization orbit readout
Latitude
Unknown
Longitude
Unknown
Altitude
Unknown
Speed
Unknown
Apparent Right ascension
Unknown
Apparent Declination
Unknown
Sunlit
N/A
Visualization observer readout
Local Sidereal Time
16:17:45
Azimuth
Unknown
Elevation
Unknown
Doppler factor
Unknown
Orbital elements
Apogee altitude
1,703.53 km
Perigee altitude
1,394.019 km
Semi-major axis
7,926.911 km
Eccentricity
0.01952
Inclination
56.0364°
RAAN
171.8676°
Arg. of periapsis
216.3938°
True anomaly
293.55257°
Mean anomaly
295.5913°
Eccentric anomaly
294.57404°
Mean motion
3.0753 °/min
Orbital period
117.06 mins
BSTAR
0.00080985
Loading maneuver chart data...
Computing Atmospheric mass density...
Loading historical data...
Loading historical data...
Loading historical data...
Loading historical data...
Loading historical data...
Loading historical data...
Loading historical data...

Documentation

Showing up to 5 results
|